DW0805 Ramloese DK current weather conditions

sailwx.info

Wind from 207 at 6 knots gusting 14

Air temperature 23.9° C
Dewpoint 14.8° C

Last reported at 2017-May-28 07:55 UTC.
Time now 2017-May-28 08:42 UTC

Location: N 56°01' E 012°05'.
View on Google Maps.

See reports from other nearby stations

  
Tides and Currents Weather Stations Pressure Air Temp Water Temp Dewpoint Dewpoint Depression Visibility Wind Speed Wind Dir Waves Ship Positions
date/time (UTC)wind fromknots sea level pressurealtimeterstation pressurevisibilityair tempwater tempwave heightnotes
2017-May-28 07:55 207 6 gusting 14 23.9
2017-May-28 07:45 200 10 gusting 17 23.9
2017-May-28 07:25 211 6 gusting 12 23.9
2017-May-28 07:15 207 5 gusting 10 24.4
2017-May-28 07:05 211 6 gusting 13 23.9
2017-May-28 06:55 182 6 gusting 12 23.9
2017-May-28 06:25 177 6 gusting 8 21.7
2017-May-28 06:15 183 5 gusting 10 21.7
2017-May-28 06:05 179 5 gusting 10 22.2
2017-May-28 05:55 183 5 gusting 8 22.2
2017-May-28 05:35 167 4 gusting 10 21.7
2017-May-28 05:25 200 2 gusting 7 20.6
2017-May-28 05:05 211 1 gusting 8 20.0
2017-May-28 04:55 177 4 gusting 6 19.4
2017-May-28 04:45 190 2 gusting 7 19.4
2017-May-28 04:25 195 2 gusting 5 18.3
2017-May-28 04:15 184 2 gusting 7 18.3
2017-May-28 04:05 180 3 gusting 7 17.8
2017-May-28 03:45 195 2 gusting 10 17.2
2017-May-28 03:35 180 3 gusting 6 16.7
2017-May-28 03:25 190 2 gusting 6 16.1
2017-May-28 03:15 188 1 gusting 5 15.6
2017-May-28 03:05 182 2 gusting 5 15.6
2017-May-28 02:45 183 1 gusting 6 15.6
2017-May-28 02:25 181 1 gusting 6 16.1
2017-May-28 02:15 188 1 gusting 6 16.1
2017-May-28 02:05 188 1 gusting 6 16.1
2017-May-28 01:55 200 2 gusting 6 16.1
2017-May-28 01:35 193 4 gusting 7 16.1
2017-May-28 01:25 187 1 gusting 6 16.1
2017-May-28 00:45 187 5 gusting 10 16.7
2017-May-28 00:25 175 3 gusting 6 16.7
2017-May-28 00:15 162 1 gusting 7 16.7
2017-May-28 00:05 184 2 gusting 10 16.7
2017-May-27 23:55 188 4 gusting 7 16.7
2017-May-27 23:25 184 2 gusting 7 16.7
2017-May-27 23:15 161 2 gusting 7 16.7
2017-May-27 22:55 157 1 gusting 5 16.7
2017-May-27 22:35 152 5 gusting 8 16.7
2017-May-27 22:25 141 2 gusting 6 16.7
2017-May-27 22:15 153 1 gusting 5 16.7
2017-May-27 22:05 165 0 gusting 4 16.7
2017-May-27 21:45 159 0 gusting 6 17.2
2017-May-27 21:35 148 2 gusting 6 17.2
2017-May-27 21:15 156 2 gusting 10 17.8
2017-May-27 21:05 191 2 gusting 7 18.3
2017-May-27 20:55 178 3 gusting 8 18.3
2017-May-27 20:45 184 4 gusting 8 18.9
2017-May-27 20:35 180 1 gusting 6 18.9
2017-May-27 20:25 181 5 gusting 8 19.4
2017-May-27 20:15 179 3 gusting 6 19.4
2017-May-27 20:05 182 0 gusting 5 20.0
2017-May-27 19:55 183 3 gusting 6 20.0
2017-May-27 19:45 188 1 gusting 5 20.0
2017-May-27 19:15 222 0 gusting 2 21.1
2017-May-27 18:55 222 21.7
2017-May-27 18:45 223 0 gusting 4 22.2
2017-May-27 18:35 227 2 gusting 4 22.8
2017-May-27 18:25 227 0 gusting 7 22.8
2017-May-27 18:05 223 4 gusting 7 23.3
2017-May-27 17:55 227 6 gusting 8 23.9
2017-May-27 17:45 225 6 gusting 10 23.9
2017-May-27 17:35 226 6 gusting 10 24.4
2017-May-27 17:05 225 6 gusting 10 25.6
2017-May-27 16:55 222 4 gusting 7 26.1
2017-May-27 16:45 227 2 gusting 7 26.1
2017-May-27 16:35 226 2 gusting 7 26.1
2017-May-27 16:15 242 1 gusting 6 26.7
2017-May-27 16:05 229 2 gusting 6 26.7
2017-May-27 15:25 222 3 gusting 6 26.7
2017-May-27 14:55 213 3 gusting 6 26.7
2017-May-27 14:45 226 2 gusting 7 26.7
2017-May-27 14:35 231 2 gusting 7 26.7
2017-May-27 14:15 242 3 gusting 6 27.2
2017-May-27 14:05 223 4 gusting 7 26.7
2017-May-27 13:35 216 5 gusting 7 26.7
2017-May-27 13:25 224 5 gusting 7 26.7
2017-May-27 13:05 241 4 gusting 8 26.7
2017-May-27 12:55 232 3 gusting 10 26.7
2017-May-27 12:45 235 5 gusting 10 26.1
2017-May-27 12:15 224 5 gusting 10 25.6
2017-May-27 12:05 227 7 gusting 11 25.6
2017-May-27 11:45 221 6 gusting 10 25.0
2017-May-27 11:35 206 7 gusting 10 25.6
2017-May-27 11:15 219 5 gusting 11 25.0
2017-May-27 11:05 215 6 gusting 10 25.0
2017-May-27 10:55 226 7 gusting 12 24.4
2017-May-27 10:35 230 6 gusting 11 25.0
2017-May-27 10:25 220 6 gusting 11 24.4
2017-May-27 10:15 222 6 gusting 11 23.9
2017-May-27 09:55 226 5 gusting 10 24.4
2017-May-27 09:35 229 5 gusting 8 24.4
2017-May-27 09:05 227 6 gusting 8 24.4
2017-May-27 08:45 225 3 gusting 7 23.9
2017-May-27 08:25 226 4 gusting 8 22.8
2017-May-27 08:05 221 4 gusting 6 23.3
2017-May-27 07:55 198 3 gusting 6 22.8
2017-May-27 07:25 175 3 gusting 4 22.2
2017-May-27 06:35 178 1 gusting 4 20.6
2017-May-27 06:25 177 2 gusting 5 20.6
2017-May-27 06:15 176 1 gusting 5 19.4
2017-May-27 05:55 146 1 gusting 6 18.9
2017-May-27 05:45 131 1 gusting 4 18.9
2017-May-27 05:15 126 1 gusting 2 17.8
2017-May-27 05:05 125 17.2
2017-May-27 04:55 118 0 gusting 5 16.7
2017-May-27 04:45 083 15.6
2017-May-27 04:35 083 1 gusting 2 14.4
2017-May-27 04:15 083 13.3
2017-May-27 04:05 081 12.8
2017-May-27 03:55 081 12.8
2017-May-27 03:45 080 12.2
2017-May-27 03:35 080 0 gusting 1 11.7
2017-May-27 03:25 080 11.7
2017-May-27 03:15 080 1 gusting 2 11.7
2017-May-27 03:05 080 0 gusting 1 11.1
2017-May-27 02:55 080 0 gusting 2 11.7
2017-May-27 02:35 014 0 gusting 1 11.1
2017-May-27 02:25 014 0 gusting 1 10.6
2017-May-27 02:05 014 0 gusting 1 10.0
2017-May-27 01:55 014 10.6
2017-May-27 01:45 014 11.1
2017-May-27 01:35 014 0 gusting 1 11.1
2017-May-27 01:25 014 11.7
2017-May-27 01:15 012 1 gusting 2 11.1
2017-May-27 01:05 011 10.6
2017-May-27 00:45 011 10.0
2017-May-27 00:25 011 10.6
2017-May-27 00:05 011 10.6
2017-May-26 23:55 011 10.6
2017-May-26 23:45 011 10.6
2017-May-26 23:35 011 11.1
2017-May-26 23:25 011 11.7
2017-May-26 23:15 011 1 gusting 2 11.1
2017-May-26 23:05 011 0 gusting 1 11.1
2017-May-26 22:55 011 11.7
2017-May-26 22:35 011 11.7
2017-May-26 22:25 011 1 gusting 2 11.7
2017-May-26 22:05 011 0 gusting 2 11.7
2017-May-26 21:55 011 1 gusting 2 12.2
2017-May-26 21:35 011 12.2
2017-May-26 21:25 011 12.8
2017-May-26 21:15 011 12.8
2017-May-26 20:15 011 0 gusting 2 14.4
2017-May-26 20:05 011 1 gusting 2 15.0
2017-May-26 19:45 011 15.6
2017-May-26 19:35 011 1 gusting 2 16.1
2017-May-26 19:25 017 16.7
2017-May-26 19:05 017 17.8
2017-May-26 18:45 017 18.9
2017-May-26 18:35 017 0 gusting 2 19.4
2017-May-26 18:25 017 20.6
2017-May-26 18:05 018 20.6
2017-May-26 17:55 024 0 gusting 2 21.1
2017-May-26 17:25 001 0 gusting 6 21.7
2017-May-26 17:15 340 2 gusting 6 21.7
2017-May-26 17:05 009 2 gusting 7 21.7
2017-May-26 16:55 003 3 gusting 10 21.1
2017-May-26 16:45 344 5 gusting 6 21.7
2017-May-26 16:15 330 2 gusting 6 22.2
2017-May-26 15:55 353 4 gusting 10 21.7
2017-May-26 15:45 358 4 gusting 7 21.7
2017-May-26 15:25 008 6 gusting 10 21.7
2017-May-26 15:05 012 4 gusting 7 22.2
2017-May-26 14:55 310 4 gusting 7 22.2
2017-May-26 14:35 358 5 gusting 7 22.2
2017-May-26 14:25 001 3 gusting 7 22.2
2017-May-26 13:55 346 3 gusting 8 21.7
2017-May-26 13:45 345 5 gusting 8 21.7
2017-May-26 13:35 329 3 gusting 8 22.2
2017-May-26 13:25 004 3 gusting 7 22.2
2017-May-26 13:15 316 4 gusting 8 21.1
2017-May-26 12:55 017 2 gusting 8 21.1
2017-May-26 12:45 335 3 gusting 10 20.6
2017-May-26 12:25 341 5 gusting 11 20.0
2017-May-26 12:15 306 5 gusting 8 20.0
2017-May-26 12:05 313 5 gusting 10 20.0
2017-May-26 11:55 328 4 gusting 8 20.6
2017-May-26 11:45 310 5 gusting 10 20.6
2017-May-26 11:25 304 4 gusting 8 20.6
2017-May-26 11:15 354 4 gusting 8 20.0
2017-May-26 11:05 307 5 gusting 7 19.4
2017-May-26 10:45 334 4 gusting 10 20.0
2017-May-26 10:35 355 5 gusting 8 20.0
2017-May-26 10:15 342 5 gusting 10 18.9
2017-May-26 09:55 336 4 gusting 10 18.9
2017-May-26 09:45 318 5 gusting 10 18.3
2017-May-26 09:25 325 3 gusting 11 18.9
2017-May-26 09:15 327 5 gusting 10 18.9
2017-May-26 08:55 009 5 gusting 10 19.4
2017-May-26 08:35 333 5 gusting 12 18.9
2017-May-26 08:25 344 6 gusting 11 18.3
2017-May-26 08:15 352 6 gusting 11 17.2
2017-May-26 08:05 356 6 gusting 12 17.8